Temp
12 11 11 9 11 14 14 14 15 15 15 14 14 14 14 14 13 13 13 13 13 12 12 12 12 12 12 12 11 11 11 11
11 11 11 12 11 12 13 14 15 15 14 14 14 13 14 14 14 13 13 13 12 12 12 12 12 12 11 11 11 11 11 10
11 11 10 10 11 12 13 14 14 13 14 14 14 13 13 14 14 13 13 12 12 12 12 12 11 11 11 11 10 10 10 9
11 11 11 10 11 11 12 12 13 13 14 14 13 13 13 13 13 13 13 12 12 12 12 11 11 11 11 11 11 10 10 9
9 9 9 8 9 11 11 12 13 13 13 14 13 13 13 13 13 13 12 12 12 12 11 11 11 11 11 10 10 10 9 9
10 10 10 10 9 10 11 12 12 13 13 13 13 13 13 12 12 12 12 12 12 11 11 11 11 10 10 10 10 9 9 8
9 9 9 9 10 12 12 12 13 13 13 13 12 12 12 12 12 12 12 11 11 11 11 11 11 10 10 9 9 9 9 8
10 10 10 10 11 12 12 13 12 12 12 12 12 12 12 12 12 12 11 11 11 11 11 11 10 9 9 9 8 9 8 8
12 11 11 11 12 12 13 12 12 12 12 12 12 12 11 11 11 11 11 11 11 11 11 10 9 9 8 8 7 7 7 7
12 11 11 11 12 12 12 12 12 12 12 12 12 11 11 11 11 11 11 11 11 11 10 9 9 8 8 7 6 5 5 4
12 12 12 12 12 12 12 12 12 12 12 12 12 11 11 11 11 11 11 11 11 10 9 9 8 7 7 6 5 4 4 4
12 12 12 12 12 12 12 11 12 11 12 12 11 11 11 10 11 11 11 10 10 9 9 8 8 7 6 5 5 4 4 3
13 13 12 12 12 12 12 12 12 11 12 11 11 11 10 11 11 11 10 10 9 9 8 8 7 7 6 5 5 4 3 3
13 13 13 13 12 12 12 12 12 12 12 11 11 11 10 10 10 10 10 9 9 8 8 7 7 7 6 5 3 3 3 3
14 13 13 13 13 12 12 12 12 12 11 12 11 11 11 10 9 9 9 9 8 8 7 7 7 7 7 6 4 4 2 2
14 13 13 13 13 13 13 13 13 12 12 12 11 11 11 10 9 9 8 8 8 7 6 6 6 6 6 5 4 3 2 2
14 14 13 13 13 13 13 13 12 12 12 11 11 11 10 10 9 9 8 8 8 7 5 6 6 6 5 4 3 2 1 0
15 14 14 13 13 13 13 12 12 11 11 11 11 10 10 9 9 8 8 8 8 8 7 5 5 4 4 3 2 0 0 -0
15 15 14 14 13 13 12 12 12 11 11 11 11 11 10 9 9 8 7 7 7 7 6 5 5 4 3 2 1 0 -0 -1
16 16 15 14 13 13 12 12 12 12 10 10 11 11 10 9 8 7 6 6 6 5 6 5 4 3 2 1 1 -0 -1 -1
Height
1529 1533 1537 1545 1557 1556 1561 1565 1564 1568 1572 1576 1579 1582 1583 1585 1585 1587 1589 1590 1591 1593 1594 1593 1595 1595 1594 1592 1592 1592 1590 1589
1528 1530 1532 1537 1549 1563 1566 1565 1568 1570 1574 1577 1581 1584 1585 1585 1587 1588 1589 1591 1592 1594 1595 1595 1596 1595 1594 1594 1593 1593 1591 1589
1532 1519 1535 1542 1549 1564 1566 1565 1569 1571 1574 1579 1582 1585 1586 1587 1588 1590 1590 1592 1593 1594 1595 1596 1596 1594 1594 1594 1592 1592 1591 1590
1532 1536 1537 1540 1547 1560 1565 1567 1570 1574 1577 1579 1581 1586 1586 1589 1590 1590 1591 1593 1594 1594 1595 1595 1595 1595 1594 1594 1592 1591 1592 1589
1534 1535 1538 1544 1549 1559 1567 1573 1575 1576 1578 1580 1581 1586 1586 1587 1588 1590 1591 1593 1594 1595 1594 1595 1595 1595 1593 1593 1592 1591 1591 1589
1537 1542 1545 1552 1558 1565 1570 1573 1575 1578 1579 1581 1584 1585 1587 1588 1589 1590 1592 1594 1595 1594 1595 1594 1594 1592 1592 1593 1592 1590 1590 1588
1542 1547 1552 1556 1562 1567 1570 1573 1576 1577 1580 1581 1584 1585 1587 1589 1589 1590 1592 1594 1595 1594 1594 1593 1593 1592 1591 1591 1592 1589 1588 1587
1546 1551 1556 1558 1563 1566 1570 1573 1575 1577 1579 1581 1583 1584 1586 1588 1589 1590 1592 1593 1592 1593 1593 1593 1591 1591 1591 1590 1590 1589 1587 1586
1548 1552 1557 1559 1562 1566 1569 1572 1574 1577 1578 1579 1583 1584 1586 1588 1589 1589 1590 1591 1591 1591 1592 1591 1590 1589 1589 1588 1587 1587 1586 1585
1550 1553 1556 1559 1562 1565 1567 1570 1573 1576 1577 1579 1582 1583 1585 1587 1587 1587 1590 1590 1590 1590 1590 1589 1589 1588 1586 1586 1585 1584 1583 1582
1549 1552 1555 1558 1561 1563 1567 1569 1572 1573 1576 1578 1580 1581 1585 1586 1585 1583 1585 1590 1589 1589 1588 1587 1586 1587 1584 1583 1582 1581 1581 1580
1548 1551 1554 1557 1559 1562 1564 1567 1568 1572 1574 1576 1577 1580 1582 1584 1582 1582 1583 1588 1586 1586 1585 1585 1584 1584 1582 1580 1579 1578 1577 1577
1545 1548 1551 1554 1556 1559 1561 1563 1566 1569 1571 1573 1575 1577 1578 1578 1580 1581 1583 1584 1583 1583 1582 1582 1581 1581 1580 1580 1577 1575 1574 1573
1542 1545 1548 1551 1554 1558 1560 1562 1564 1567 1567 1569 1571 1572 1574 1575 1577 1580 1580 1580 1580 1580 1579 1578 1578 1578 1577 1576 1576 1573 1570 1569
1538 1542 1545 1548 1551 1554 1556 1559 1561 1562 1562 1565 1566 1568 1569 1573 1576 1576 1576 1576 1576 1577 1578 1576 1572 1573 1573 1573 1572 1571 1569 1566
1534 1537 1540 1544 1547 1550 1551 1553 1554 1557 1560 1561 1563 1564 1566 1569 1571 1571 1572 1572 1573 1574 1574 1574 1573 1570 1569 1567 1567 1566 1566 1565
1529 1532 1536 1538 1542 1545 1548 1549 1551 1554 1557 1558 1559 1560 1562 1564 1565 1565 1565 1566 1567 1567 1570 1569 1568 1566 1563 1562 1562 1561 1560 1561
1524 1527 1530 1533 1536 1539 1541 1544 1546 1549 1551 1552 1553 1555 1557 1559 1559 1559 1560 1560 1560 1561 1560 1564 1561 1560 1560 1558 1558 1558 1557 1556
1518 1521 1524 1527 1530 1532 1535 1538 1540 1543 1545 1546 1547 1548 1550 1552 1553 1554 1556 1557 1558 1556 1555 1557 1555 1555 1554 1553 1553 1553 1553 1552
1511 1514 1518 1520 1523 1526 1528 1531 1534 1536 1539 1541 1542 1543 1545 1547 1549 1550 1551 1553 1551 1555 1549 1550 1551 1550 1549 1549 1549 1549 1549 1549
Wind_Speed
29 30 32 31 20 23 27 27 27 28 30 31 29 27 24 22 20 17 13 12 12 12 11 11 9 10 10 11 14 16 17 15
31 33 37 41 31 20 23 24 24 27 29 29 27 23 21 19 17 15 13 10 9 9 8 8 8 8 10 11 14 15 16 15
27 29 45 42 33 23 21 23 25 25 27 26 25 22 19 17 14 12 10 7 7 6 7 7 9 9 9 10 11 14 15 14
24 36 41 46 42 21 20 20 19 21 25 26 24 20 17 13 12 9 6 5 4 4 4 6 9 8 10 13 14 14 14 14
40 44 47 40 42 34 35 33 20 23 24 24 22 18 15 13 10 7 6 4 2 2 4 5 7 9 11 12 13 14 15 12
35 31 37 30 34 42 22 21 22 23 22 20 17 16 14 11 9 8 6 4 1 1 3 6 8 10 11 13 14 15 15 10
24 30 35 35 27 19 21 22 23 22 19 17 15 13 11 9 7 6 5 3 3 3 6 8 10 11 11 13 14 14 13 9
33 31 29 26 23 17 19 21 22 20 18 15 13 11 8 6 6 6 6 4 2 6 7 9 10 11 11 13 13 11 10 11
27 27 24 20 18 19 21 22 21 19 17 14 13 12 10 7 8 7 5 6 5 5 8 9 10 11 12 11 9 10 10 8
25 23 20 19 18 19 22 23 20 19 17 14 12 10 9 8 8 8 8 7 6 6 7 8 10 10 9 10 10 9 9 8
25 21 20 20 20 21 24 22 20 18 18 15 12 11 12 12 11 10 9 10 8 7 6 7 7 8 9 9 10 8 8 9
22 21 21 21 22 23 24 24 22 20 18 16 14 15 15 14 12 13 13 12 9 6 5 5 6 7 9 10 11 11 11 9
24 23 21 24 27 27 27 25 24 23 21 20 17 17 16 16 16 16 15 11 8 6 5 5 6 8 9 12 14 13 11 9
28 26 26 27 28 26 25 25 26 24 22 20 19 19 18 19 19 18 15 11 9 6 4 2 6 9 9 13 5 10 12 10
31 31 30 30 30 28 26 25 26 28 24 22 21 21 21 22 22 18 15 12 9 5 3 5 9 16 18 14 5 5 9 13
33 33 34 34 32 32 31 31 31 30 25 22 23 23 24 25 22 19 16 12 7 5 6 12 16 16 19 15 13 13 6 8
34 34 35 35 34 33 31 32 31 25 26 26 26 26 26 26 25 23 19 16 11 7 11 19 27 30 17 13 12 12 13 10
34 35 35 35 34 33 32 33 31 30 30 31 29 28 29 29 27 24 22 19 15 18 23 20 25 19 13 11 12 7 7 8
36 35 36 35 34 34 32 35 34 34 36 33 31 31 28 32 31 27 24 18 17 15 15 21 19 12 13 14 11 11 11 11
38 38 38 37 36 33 34 36 36 37 37 37 35 33 29 30 30 27 22 16 16 15 15 18 11 16 14 12 12 12 12 12
Wind_Direction
173 163 161 136 142 146 151 150 145 151 150 148 146 144 140 137 133 130 124 112 108 105 86 74 65 54 47 37 27 19 19 26
173 166 157 141 135 148 150 142 147 147 148 151 151 147 149 143 141 138 131 120 107 96 71 63 49 38 25 20 11 6 11 17
159 158 135 132 136 151 144 141 144 142 153 155 155 158 155 151 143 143 128 119 98 86 55 42 23 22 12 4 2 3 7 9
169 159 152 142 137 136 135 136 143 160 157 160 161 162 157 154 153 147 137 119 93 60 32 15 0 359 355 347 348 354 353 359
156 147 144 139 142 147 135 160 163 161 163 165 165 169 168 167 161 162 162 136 117 32 2 340 340 333 333 333 336 338 341 346
148 151 149 150 165 153 172 169 169 171 168 168 171 177 175 170 172 160 156 159 185 345 314 317 314 323 326 324 327 331 334 340
167 146 150 157 163 175 170 173 179 172 167 166 173 174 179 182 177 175 180 203 265 304 310 313 312 311 315 319 320 324 329 333
146 152 160 164 182 182 181 184 177 176 177 180 183 183 184 191 199 199 212 231 273 299 304 309 313 315 316 317 319 322 322 321
156 161 173 178 179 189 187 180 182 186 187 188 195 188 199 214 210 207 224 232 256 291 309 310 310 312 315 317 321 320 325 330
172 179 186 191 190 192 187 187 190 198 198 199 200 208 216 225 217 219 223 238 261 277 289 302 310 312 316 321 321 325 332 332
190 191 195 196 195 193 191 194 201 199 203 206 219 228 231 220 219 212 220 240 245 267 301 313 316 319 323 323 322 317 315 320
199 203 203 201 197 196 198 207 208 210 212 215 229 232 223 222 218 214 223 233 245 274 294 313 323 320 329 327 319 307 304 305
203 206 206 203 201 202 205 209 210 212 215 218 228 226 226 222 217 221 225 237 250 270 303 326 330 341 335 322 311 294 286 284
212 209 210 209 208 210 214 216 219 222 223 223 234 228 223 220 220 225 232 244 257 276 291 333 340 334 329 321 278 291 271 275
215 214 213 215 214 215 222 223 224 224 221 232 230 221 220 223 225 230 240 247 263 282 286 317 330 329 318 305 287 275 288 285
219 219 218 220 222 224 227 226 225 225 229 232 225 222 223 224 230 235 243 253 264 261 288 328 333 333 315 292 288 282 282 288
219 221 222 225 226 229 233 231 235 239 232 230 226 225 226 230 234 238 242 248 244 253 315 317 323 316 294 289 282 283 285 280
225 224 224 227 227 231 235 234 238 238 238 232 228 229 232 232 234 238 243 243 245 288 296 319 322 304 288 286 286 279 279 280
229 230 231 232 232 233 237 237 241 244 246 241 238 240 244 238 240 242 245 247 272 281 298 314 298 282 284 289 292 293 287 291
234 233 235 237 238 239 241 241 245 250 246 246 247 245 252 247 242 240 236 252 276 279 313 298 274 290 284 285 286 285 286 281